CW9861 Weather Reports


time (UTC)temp
F
wind
direction
speed
knots
gust
knots
rain 1hr
in
rain 24hr
in
rain mn
in
humidity
%
barometer
mb
20260831195306 80 212 1.7 11.3 0.00 0.11 0.11 79 1012.1
20260831194804 80 186 3.5 11.3 0.00 0.11 0.11 76 1012.0
20260831194303 81 97 2.6 5.2 0.00 0.11 0.11 78 1012.1
20260831193804 81 257 0.9 7.0 0.00 0.11 0.11 76 1012.2
20260831193304 80 173 1.7 7.8 0.00 0.11 0.11 79 1012.3
20260831192804 78 284 3.5 7.8 0.00 0.11 0.11 82 1012.3
20260831192305 77 155 1.7 5.2 0.00 0.11 0.11 84 1012.4
20260831191803 76 224 1.7 5.2 0.00 0.11 0.11 84 1012.4
20260831191303 76 228 1.7 8.7 0.00 0.11 0.11 84 1012.5
20260831190803 75 236 1.7 6.1 0.00 0.11 0.11 85 1013.0
20260831190304 75 223 1.7 7.0 0.00 0.11 0.11 85 1013.0
20260831185802 75 182 1.7 7.0 0.00 0.11 0.11 85 1013.0
20260831185301 75 192 0.9 2.6 0.00 0.11 0.11 85 1013.1
20260831184802 76 105 0.0 1.7 0.00 0.11 0.11 84 1013.3
20260831184302 76 155 0.0 2.6 0.00 0.11 0.11 84 1013.4
20260831183802 76 221 0.0 2.6 0.00 0.11 0.11 84 1013.3
20260831183302 76 181 0.0 2.6 0.00 0.11 0.11 84 1012.9
20260831182803 76 217 0.9 4.3 0.00 0.11 0.11 84 1012.9
20260831182305 76 178 0.9 1.7 0.00 0.11 0.11 84 1013.3
20260831181802 77 157 0.9 2.6 0.00 0.11 0.11 84 1013.4
20260831181302 77 170 0.9 2.6 0.00 0.11 0.11 83 1013.8
20260831173303 79 147 1.7 6.1 0.00 0.11 0.11 83 1013.4
20260831172803 79 253 1.7 6.1 0.00 0.11 0.11 82 1013.3
20260831172306 78 192 1.7 5.2 0.00 0.11 0.11 82 1013.4
20260831171802 78 172 1.7 6.1 0.00 0.11 0.11 83 1013.3
20260831171303 78 266 1.7 6.1 0.00 0.11 0.11 84 1013.3
20260831170803 77 205 2.6 6.1 0.00 0.11 0.11 83 1013.4
20260831170304 78 130 0.9 7.0 0.00 0.11 0.11 84 1013.4
20260831165802 78 226 1.7 6.1 0.00 0.11 0.11 82 1013.4
20260831165305 78 139 2.6 6.1 0.00 0.11 0.11 83 1013.6
20260831164803 78 224 2.6 7.0 0.00 0.11 0.11 86 1014.0
20260831164302 77 219 0.9 5.2 0.00 0.11 0.11 86 1014.0
20260831163802 77 242 1.7 5.2 0.00 0.11 0.11 85 1014.0
20260831163302 76 187 1.7 4.3 0.00 0.11 0.11 86 1013.8
20260831162803 76 208 1.7 7.0 0.00 0.11 0.11 88 1013.8
20260831162301 75 215 3.5 7.0 0.00 0.11 0.11 88 1013.9
20260831161802 74 200 1.7 7.8 0.00 0.11 0.11 89 1014.0
20260831161302 74 204 1.7 7.8 0.00 0.11 0.11 89 1014.2
20260831160803 74 199 0.9 6.1 0.00 0.11 0.11 90 1014.2
20260831160301 73 179 2.6 6.1 0.00 0.11 0.11 89 1014.3
20260831155803 73 271 0.9 5.2 0.00 0.11 0.11 90 1014.4
20260831155302 73 230 0.9 6.1 0.00 0.11 0.11 90 1014.3
20260831154802 72 225 2.6 6.1 0.00 0.11 0.11 90 1014.2
20260831154303 72 181 0.9 3.5 0.00 0.11 0.11 90 1014.2
20260831153802 72 143 0.9 4.3 0.00 0.11 0.11 91 1014.3
20260831153301 72 182 1.7 4.3 0.00 0.11 0.11 91 1014.4
20260831152801 72 232 0.9 3.5 0.01 0.11 0.11 91 1014.6
20260831152305 72 216 0.9 2.6 0.08 0.11 0.11 91 1014.3
20260831151802 72 175 0.9 2.6 0.08 0.11 0.11 91 1014.5
20260831143801 71 67 0.0 2.6 0.10 0.11 0.11 91 1015.1
20260831143301 71 67 0.9 2.6 0.10 0.11 0.11 91 1014.9
20260831142802 71 59 0.0 1.7 0.10 0.10 0.10 91 1014.6
20260831142305 71 59 0.0 0.0 0.03 0.03 0.03 91 1014.8
20260831141802 71 59 0.0 2.6 0.03 0.03 0.03 91 1015.0
20260831141302 71 46 1.7 2.6 0.03 0.03 0.03 91 1014.7
20260831140801 71 271 0.0 0.9 0.03 0.03 0.03 91 1014.6
20260831140302 71 271 0.0 0.0 0.02 0.03 0.02 91 1014.8
20260831135802 71 271 0.0 0.0 0.02 0.03 0.02 91 1014.8
20260831135302 71 271 0.0 0.0 0.02 0.03 0.02 90 1014.8
20260831134802 71 271 0.0 0.0 0.02 0.03 0.02 91 1014.8
20260831134302 71 271 0.0 0.0 0.02 0.03 0.02 91 1015.1
20260831133802 71 271 0.0 0.0 0.01 0.02 0.01 91 1015.2
20260831133302 71 271 0.0 0.0 0.01 0.02 0.01 91 1015.4
20260831132801 71 271 0.0 0.0 0.00 0.01 0.00 91 1015.4
20260831132306 71 271 0.0 0.0 0.00 0.01 0.00 91 1015.4
20260831131801 71 271 0.0 0.0 0.00 0.01 0.00 91 1015.2
20260831131302 71 271 0.0 0.0 0.00 0.01 0.00 90 1015.2
20260831130802 70 271 0.0 0.0 0.00 0.01 0.00 90 1015.0
20260831130305 70 271 0.0 0.9 0.00 0.01 0.00 90 1015.0
20260831125803 70 271 0.0 0.9 0.00 0.06 0.00 90 1014.9
20260831121802 70 271 0.9 2.6 0.00 0.06 0.00 91 1014.1
20260831121302 69 234 0.9 3.5 0.00 0.06 0.00 91 1013.9
20260831120802 69 186 0.9 3.5 0.00 0.06 0.00 91 1013.8
20260831120304 69 210 0.9 1.7 0.00 0.06 0.00 90 1013.9
20260831115803 69 192 0.0 0.9 0.00 0.24 0.00 90 1014.1
20260831115305 69 192 0.0 0.9 0.00 0.24 0.00 90 1014.2
20260831114802 69 192 0.0 0.9 0.00 0.24 0.00 91 1014.1
20260831114302 69 203 0.0 0.9 0.00 0.24 0.00 90 1014.1
20260831113803 69 204 0.0 0.9 0.00 0.24 0.00 90 1014.1
20260831113301 69 220 0.0 1.7 0.00 0.24 0.00 90 1014.0
20260831112801 69 41 0.0 0.9 0.00 0.24 0.00 90 1013.9
20260831112306 69 159 0.0 1.7 0.00 0.24 0.00 90 1013.8
20260831111802 69 159 0.9 1.7 0.00 0.24 0.00 90 1013.8
20260831111302 69 221 0.0 0.9 0.00 0.24 0.00 90 1013.8
20260831110802 69 221 0.0 0.9 0.00 0.24 0.00 90 1013.8
20260831110302 69 221 0.0 0.9 0.00 0.42 0.00 90 1013.8
20260831105801 69 221 0.0 2.6 0.00 0.42 0.00 90 1013.7
20260831105305 68 157 0.0 2.6 0.00 0.42 0.00 90 1013.7
20260831104801 68 163 0.9 2.6 0.00 0.42 0.00 90 1013.8
20260831104302 68 213 0.0 0.9 0.00 0.42 0.00 90 1013.8
20260831103801 68 336 0.0 0.9 0.00 0.42 0.00 90 1013.9
20260831103302 69 336 0.0 0.0 0.00 0.42 0.00 90 1013.9
20260831102802 69 336 0.0 0.0 0.00 0.42 0.00 90 1014.0
20260831102305 69 336 0.0 0.0 0.00 0.42 0.00 90 1014.1
20260831101802 69 336 0.0 0.0 0.00 0.42 0.00 90 1014.1
20260831101302 69 336 0.0 0.0 0.00 0.42 0.00 90 1014.2
20260831100802 69 336 0.0 0.0 0.00 0.42 0.00 90 1014.2
20260831100301 69 336 0.0 0.0 0.00 0.42 0.00 90 1014.3
20260831095802 69 336 0.0 0.0 0.00 0.42 0.00 90 1014.2
20260831095301 69 336 0.0 0.0 0.00 0.42 0.00 90 1014.3
20260831094801 69 336 0.0 0.0 0.00 0.42 0.00 90 1014.3
20260831094302 69 336 0.0 0.0 0.00 0.42 0.00 90 1014.4
20260831093801 69 336 0.0 0.0 0.00 0.42 0.00 90 1014.4
20260831093301 69 336 0.0 0.9 0.00 0.42 0.00 90 1014.4
20260831092802 69 336 0.0 0.9 0.00 0.42 0.00 90 1014.4
20260831092306 69 336 0.0 0.9 0.00 0.42 0.00 90 1014.4
20260831091556 69 347 0.0 0.9 0.00 0.42 0.00 90 1014.3
20260831091055 69 349 0.0 0.9 0.00 0.42 0.00 90 1014.3
20260831090555 69 266 0.0 0.9 0.00 0.42 0.00 90 1014.4
20260831090056 69 288 0.0 0.9 0.00 0.42 0.00 90 1014.4
20260831085556 69 276 0.0 0.9 0.00 0.42 0.00 90 1014.4
20260831085055 69 276 0.0 1.7 0.00 0.42 0.00 90 1014.3
20260831084555 69 326 0.0 1.7 0.00 0.42 0.00 90 1014.3
20260831084055 69 258 0.0 0.9 0.00 0.42 0.00 90 1014.2
20260831083555 69 258 0.0 0.9 0.00 0.42 0.00 90 1014.3
20260831083055 69 258 0.0 1.7 0.00 0.42 0.00 90 1014.3
20260831082555 69 276 0.9 1.7 0.00 0.42 0.00 90 1014.1
20260831082055 68 165 0.0 0.9 0.00 0.42 0.00 90 1014.1
20260831081556 69 159 0.0 1.7 0.00 0.42 0.00 90 1014.3
20260831081056 69 145 0.0 1.7 0.00 0.42 0.00 90 1014.1
20260831080555 69 46 0.0 0.9 0.00 0.42 0.00 90 1014.2
20260831080058 69 46 0.0 0.9 0.00 0.42 0.00 90 1014.3
20260831075556 68 61 0.0 0.9 0.00 0.42 0.00 90 1014.2
20260831075057 68 61 0.0 0.9 0.00 0.42 0.00 90 1014.2
20260831074557 68 61 0.0 0.9 0.00 0.42 0.00 90 1014.2
20260831074057 69 61 0.0 0.0 0.00 0.42 0.00 90 1014.2
20260831073556 69 61 0.0 0.0 0.00 0.42 0.00 90 1014.3
20260831073057 69 61 0.0 0.0 0.00 0.42 0.00 90 1014.3
20260831072556 69 61 0.0 0.9 0.00 0.42 0.00 90 1014.4
20260831072056 69 61 0.0 0.9 0.00 0.42 0.00 90 1014.3
20260831071556 69 55 0.0 0.0 0.00 0.42 0.00 90 1014.3
20260831071056 69 55 0.0 0.0 0.00 0.42 0.00 90 1014.4
20260831063056 69 82 0.0 1.7 0.00 0.42 0.00 90 1014.3
20260831062556 69 58 0.0 0.9 0.00 0.42 0.00 89 1014.3
20260831062056 69 55 0.0 0.9 0.00 0.42 0.00 89 1014.3
20260831061555 69 55 0.0 1.7 0.00 0.42 0.00 89 1014.2
20260831061055 69 55 0.0 1.7 0.00 0.42 0.00 89 1014.4
20260831060556 69 55 0.0 0.0 0.00 0.42 0.00 89 1014.5
20260831060056 69 55 0.0 0.0 0.00 0.42 0.00 89 1014.5
20260831055555 69 55 0.0 0.0 0.00 0.42 0.00 90 1014.6
20260831055055 69 55 0.0 0.9 0.00 0.42 0.00 90 1014.6
20260831054555 69 55 0.0 0.9 0.00 0.42 0.00 90 1014.6
20260831054055 69 55 0.0 0.9 0.00 0.42 0.00 90 1014.6
20260831053555 69 55 0.0 0.9 0.00 0.42 0.00 90 1014.6
20260831053055 69 55 0.0 0.9 0.00 0.42 0.00 90 1014.6
20260831052555 69 55 0.0 0.9 0.00 0.42 0.00 90 1014.7
20260831052055 69 55 0.0 1.7 0.00 0.42 0.00 90 1014.8
20260831051555 69 55 0.0 1.7 0.00 0.42 0.00 90 1014.8
20260831051055 69 59 0.0 1.7 0.00 0.42 0.00 89 1014.8
20260831050555 69 34 0.0 0.0 0.00 0.42 0.00 89 1014.9
20260831050059 69 34 0.0 1.7 0.00 0.42 0.00 89 1014.8
20260831045556 69 34 0.0 1.7 0.00 0.42 0.00 89 1014.8
20260831045057 69 162 0.0 0.0 0.00 0.42 0.00 89 1014.9
20260831044556 69 90 0.0 0.9 0.00 0.42 0.00 89 1014.9
20260831044057 69 90 0.0 0.9 0.00 0.42 0.00 89 1014.8
20260831043556 69 90 0.0 0.9 0.00 0.42 0.00 89 1014.7
20260831043057 69 90 0.0 1.7 0.00 0.42 0.00 89 1014.7
20260831042556 69 90 0.0 1.7 0.00 0.42 0.00 89 1014.6
20260831042056 69 97 0.0 1.7 0.00 0.42 0.00 89 1014.6
20260831041556 69 176 0.0 0.0 0.00 0.42 0.00 88 1014.6
20260831033556 70 176 0.0 0.9 0.00 0.42 0.42 88 1014.5
20260831033056 70 180 0.0 0.0 0.00 0.42 0.42 87 1014.7
20260831032556 71 180 0.0 0.0 0.00 0.42 0.42 87 1014.7
20260831032056 71 180 0.0 0.0 0.00 0.42 0.42 87 1014.8
20260831031557 71 180 0.0 0.0 0.00 0.42 0.42 87 1014.7
20260831031057 71 180 0.0 0.0 0.00 0.42 0.42 86 1014.7
20260831030557 71 180 0.0 0.0 0.00 0.42 0.42 86 1014.7
20260831030057 71 180 0.0 0.0 0.00 0.42 0.42 86 1014.7
20260831025557 71 180 0.0 0.0 0.00 0.42 0.42 86 1014.7
20260831025056 71 180 0.0 0.0 0.00 0.42 0.42 86 1014.6
20260831024556 72 180 0.0 0.0 0.00 0.42 0.42 86 1014.7
20260831024056 72 180 0.0 0.0 0.00 0.42 0.42 86 1014.7
20260831023557 72 180 0.0 0.0 0.00 0.42 0.42 86 1014.7
20260831023056 72 180 0.0 0.0 0.00 0.42 0.42 86 1014.6
20260831015057 73 179 0.0 2.6 0.00 0.43 0.42 84 1014.3
20260831014557 73 225 0.0 0.9 0.00 0.43 0.42 84 1014.3
20260831014058 73 223 0.0 0.9 0.00 0.43 0.42 83 1014.2
20260831013558 73 221 0.0 0.0 0.00 0.43 0.42 83 1014.1
20260831013058 73 222 0.0 0.0 0.00 0.43 0.42 82 1014.0
20260831012557 73 221 0.0 0.0 0.00 0.43 0.42 83 1014.1
20260831012058 74 221 0.0 0.0 0.00 0.43 0.42 83 1014.1
20260831011558 74 221 0.0 0.0 0.00 0.43 0.42 83 1014.0
20260831011059 74 222 0.0 0.9 0.00 0.43 0.42 83 1013.9
20260831010558 74 221 0.0 0.9 0.00 0.43 0.42 82 1013.7
20260831010057 74 222 0.0 0.0 0.00 0.43 0.42 82 1013.7
20260831005557 74 223 0.0 0.9 0.00 0.43 0.42 82 1013.6
20260831005056 75 354 0.0 1.7 0.00 0.43 0.42 82 1013.5
20260831004556 75 103 0.0 0.9 0.00 0.43 0.42 82 1013.5
20260831004056 75 201 0.0 1.7 0.00 0.43 0.42 81 1013.5
20260831003556 75 201 0.9 1.7 0.00 0.43 0.42 81 1013.5
20260831003056 75 215 0.0 2.6 0.00 0.43 0.42 81 1013.5
20260831002556 75 305 0.9 2.6 0.00 0.43 0.42 81 1013.6
20260831002056 75 182 0.9 1.7 0.00 0.43 0.42 80 1013.6
20260831001557 76 180 0.0 4.3 0.00 0.43 0.42 80 1013.6
20260831001056 76 244 0.0 4.3 0.00 0.43 0.42 80 1013.6
20260831000557 76 345 0.9 3.5 0.00 0.43 0.42 80 1013.6
20260831000059 76 296 1.7 4.3 0.00 0.43 0.42 80 1013.5
20260830235557 76 222 1.7 3.5 0.00 0.43 0.42 80 1013.6
20260830235057 76 228 2.6 3.5 0.00 0.43 0.42 80 1013.4
20260830234558 76 194 1.7 4.3 0.00 0.43 0.42 80 1013.4
20260830234057 76 220 0.9 2.6 0.00 0.43 0.42 80 1013.4
20260830233558 76 203 0.9 4.3 0.00 0.43 0.42 80 1013.4
20260830233057 76 282 0.9 6.1 0.00 0.43 0.42 79 1013.3
20260830232557 76 259 2.6 6.1 0.00 0.43 0.42 79 1013.2
20260830232057 76 334 0.9 4.3 0.00 0.43 0.42 79 1013.2
20260830231558 76 100 0.9 4.3 0.00 0.43 0.42 78 1013.2
20260830231057 77 319 1.7 9.6 0.00 0.43 0.42 78 1013.2
20260830230557 77 253 2.6 9.6 0.00 0.43 0.42 78 1013.2
20260830230057 77 259 1.7 8.7 0.00 0.43 0.42 77 1013.2
20260830225556 77 266 2.6 8.7 0.00 0.43 0.42 76 1013.2
20260830225056 77 205 3.5 8.7 0.00 0.43 0.42 76 1013.3
20260830224556 78 254 3.5 8.7 0.00 0.43 0.42 75 1013.3
20260830224056 78 219 2.6 7.8 0.00 0.43 0.42 75 1013.3
20260830223556 78 190 1.7 7.8 0.00 0.43 0.42 75 1013.3
20260830223057 78 237 3.5 8.7 0.00 0.43 0.42 74 1013.2
20260830222556 78 255 2.6 8.7 0.00 0.43 0.42 74 1013.2
20260830222056 79 222 3.5 7.0 0.00 0.43 0.42 73 1013.3
20260830221556 79 352 0.9 5.2 0.00 0.43 0.42 73 1013.3
20260830221056 79 276 2.6 10.4 0.00 0.43 0.42 72 1013.3
20260830220556 79 192 3.5 10.4 0.00 0.43 0.42 71 1013.3
20260830220056 79 293 4.3 10.4 0.00 0.43 0.42 71 1013.4
20260830215556 79 345 4.3 11.3 0.00 0.43 0.42 71 1013.3
20260830215056 79 217 1.7 11.3 0.00 0.43 0.42 72 1013.4
20260830214556 80 188 2.6 7.8 0.00 0.43 0.42 70 1013.5
20260830214056 80 231 3.5 9.6 0.00 0.43 0.42 69 1013.5
20260830213556 81 197 2.6 9.6 0.00 0.43 0.42 68 1013.4
20260830213056 82 305 1.7 8.7 0.00 0.43 0.42 70 1013.5
20260830212556 82 236 2.6 9.6 0.00 0.43 0.42 68 1013.4
20260830212031 82 313 2.6 11.3 0.00 0.43 0.42 67 1013.4
20260830211531 82 220 1.7 10.4 0.00 0.43 0.42 69 1013.5
20260830211031 82 281 1.7 7.8 0.00 0.43 0.42 70 1013.5
20260830210531 82 11 1.7 7.8 0.00 0.43 0.42 71 1013.6
20260830210032 81 191 0.9 7.0 0.00 0.43 0.42 73 1013.7
20260830205531 81 232 2.6 7.8 0.00 0.43 0.42 71 1013.7
20260830205032 82 201 1.7 7.8 0.00 0.43 0.42 70 1013.7
20260830204532 82 182 3.5 7.8 0.00 0.43 0.42 69 1013.8